SCP
0 0 0 0 0 0 0 0 0 0 0 0 0 0 0 0 0 0 0 0 0 0 0 0 0 0 0 0 0 0 0 0 0 0 0 0 0 0 0 0 0 0 0 0 0 0 0
0 0 0 0 0 0 0 0 0 0 0 0 0 0 0 0 0 0 0 0 0 0 0 0 0 0 0 0 0 0 0 0 0 0 0 0 0 0 0 0 0 0 0 0 0 0 0
0 0 0 0 0 0 0 0 0 0 0 0 0 0 0 0 0 0 0 0 0 0 0 0 0 0 0 0 0 0 0 0 0 0 0 0 0 0 0 0 0 0 0 0 0 0 0
0 0 0 0 0 0 0 0 0 0 0 0 0 0 0 0 0 0 0 0 0 0 0 0 0 0 0 0 0 0 0 0 0 0 0 0 0 0 0 0 0 0 0 0 0 0 0
0 0 0 0 0 0 0 0 0 0 0 0 0 0 0 0 0 0 0 0 0 0 0 0 0 0 0 0 0 0 0 0 0 0 0 0 0 0 0 0 0 0 0 0 0 0 0
0 0 0 0 0 0 0 0 0 0 0 0 0 0 0 0 0 0 0 0 0 0 0 0 0 0 0 0 0 0 0 0 0 0 0 0 0 0 0 0 0 0 0 0 0 0 0
0 0 0 0 0 0 0 0 0 0 0 0 0 0 0 0 0 0 0 0 0 0 0 0 0 0 0 0 0 0 0 0 0 0 0 0 0 0 0 0 0 0 0 0 0 0 0
0 0 0 0 0 0 0 0 0 0 0 0 0 0 0 0 0 0 0 0 0 0 0 0 0 0 0 0 0 0 0 0 0 0 0 0 0 0 0 0 0 0 0 0 0 0 0
0 0 0 0 0 0 0 0 0 0 0 0 0 0 0 0 0 0 0 0 0 0 0 0 0 0 0 0 0 0 0 0 0 0 0 0 0 0 0 0 0 0 0 0 0 0 0
0 0 0 0 0 0 0 0 0 0 0 0 0 0 0 0 0 0 0 0 0 0 0 0 0 0 0 0 0 0 0 0 0 0 0 0 0 0 0 0 0 0 0 0 0 0 0
0 0 0 0 0 0 0 0 0 0 0 0 0 0 0 0 0 0 0 0 0 0 0 0 0 0 0 0 0 0 0 0 0 0 0 0 0 0 0 0 0 0 0 0 0 0 0
0 0 0 0 0 0 0 0 0 0 0 0 0 0 0 0 0 0 0 0 0 0 0 0 0 0 0 0 0 0 0 0 0 0 0 0 0 0 0 0 0 0 0 0 0 0 0
0 0 0 0 0 0 0 0 0 0 0 0 0 0 0 0 0 0 0 0 0 0 0 0 0 0 0 0 0 0 0 0 0 0 0 0 0 0 0 0 0 0 0 0 0 0 0
0 0 0 0 0 0 0 0 0 0 0 0 0 0 0 0 0 0 0 0 0 0 0 0 0 0 0 0 0 0 0 0 0 0 0 0 0 0 0 0 0 0 0 0 0 0 0
0 0 0 0 0 0 0 0 0 0 0 0 0 0 0 0 0 0 0 0 0 0 0 0 0 0 0 0 0 0 0 0 0 0 0 0 0 0 0 0 0 0 0 0 0 0 0
0 0 0 0 0 0 0 0 0 0 0 0 0 0 0 0 0 0 0 0 0 0 0 0 0 0 0 0 0 0 0 0 0 0 0 0 0 0 0 0 0 0 0 0 0 0 0
0 0 0 0 0 0 0 0 0 0 0 0 0 0 0 0 0 0 0 0 0 0 0 0 0 0 0 0 0 0 0 0 0 0 0 0 0 0 0 0 0 0 0 0 0 0 0
0 0 0 0 0 0 0 0 0 0 0 0 0 0 0 0 0 0 0 0 0 0 0 0 0 0 0 0 0 0 0 0 0 0 0 0 0 0 0 0 0 0 0 0 0 0 0
0 0 0 0 0 0 0 0 0 0 0 0 0 0 0 0 0 0 0 0 0 0 0 0 0 0 0 0 0 0 0 0 0 0 0 0 0 0 0 0 0 0 0 0 0 0 0
0 0 0 0 0 0 0 0 0 0 0 0 0 0 0 0 0 0 0 0 0 0 0 0 0 0 0 0 0 0 0 0 0 0 0 0 0 0 0 0 0 0 0 0 0 0 0
0 0 0 0 0 0 0 0 0 0 0 0 0 0 0 0 0 0 0 0 0 0 0 0 0 0 0 0 0 0 0 0 0 0 0 0 0 0 0 0 0 0 0 0 0 0 0
0 0 0 0 0 0 0 0 0 0 0 0 0 0 0 0 0 0 0 0 0 0 0 0 0 0 0 0 0 0 0 0 0 0 0 0 0 0 0 0 0 0 0 0 0 0 0
0 0 0 0 0 0 0 0 0 0 0 0 0 0 0 0 0 0 0 0 0 0 0 0 0 0 0 0 0 0 0 0 0 0 0 0 0 0 0 0 0 0 0 0 0 0 0
0 0 0 0 0 0 0 0 0 0 0 0 0 0 0 0 0 0 0 0 0 0 0 0 0 0 0 0 0 0 0 0 0 0 0 0 0 0 0 0 0 0 0 0 0 0 0
0 0 0 0 0 0 0 0 -0 0 -0 0 0 0 0 0 0 0 0 0 0 0 0 0 0 0 0 0 0 0 0 0 0 0 0 0 0 0 0 0 0 0 0 0 0 0 0
-0 0 0 0 0 0 0 0 0 0 0 0 0 0 0 0 0 0 0 0 0 0 0 0 0 0 0 0 0 0 0 0 0 0 0 0 0 0 0 0 0 0 0 0 0 0 0
0 0 0 0 0 0 0 0 0 0 0 0 0 0 0 0 0 0 0 0 0 0 0 0 0 0 0 0 0 0 0 0 0 0 0 0 0 0 0 0 0 0 0 0 0 0 0
0 0 0 0 0 0 0 0 0 0 0 0 0 0 0 0 0 0 0 0 0 0 0 0 0 0 0 0 0 0 0 0 0 0 0 0 0 0 0 0 0 0 0 0 0 0 0
0 0 0 0 0 0 0 0 0 0 0 0 0 0 0 0 0 0 0 0 0 0 0 0 0 0 0 0 0 0 0 0 0 0 0 0 0 0 0 0 0 0 0 0 0 0 0
Wind_Speed_500mb
30 35 41 45 46 47 45 43 41 39 36 33 30 27 25 24 23 23 22 20 19 19 19 18 17 16 15 8 11 11 9 9 12 15 17 11 6 5 5 6 5 5 6 7 9 12 9
34 33 38 43 47 50 50 49 47 45 42 39 37 34 30 28 28 27 26 25 23 21 21 20 20 18 15 11 14 15 15 16 17 18 18 12 6 8 10 5 5 3 5 8 10 10 12
44 40 38 39 45 50 53 54 52 50 48 44 42 40 37 33 32 31 30 28 27 25 23 22 21 20 22 24 17 16 17 18 20 21 19 15 10 9 13 8 3 0 8 11 15 10 11
55 48 45 43 42 45 52 54 56 54 53 50 47 44 42 39 36 34 32 31 29 27 25 23 20 18 15 21 24 28 25 22 22 22 20 16 15 14 7 15 5 2 4 8 7 9 5
61 58 53 51 47 46 46 51 54 57 57 55 53 48 46 42 40 37 34 32 30 29 26 23 20 15 12 21 27 30 25 23 23 21 20 21 21 8 11 9 6 5 11 14 5 6 5
61 62 59 58 54 55 48 48 48 55 58 58 56 53 48 45 43 40 35 33 30 30 28 23 24 10 27 15 21 27 29 26 21 26 22 15 7 8 7 15 16 13 11 10 13 6 9
48 60 66 62 60 64 55 49 51 49 57 59 59 56 51 46 43 41 35 25 22 17 31 23 10 10 5 24 22 24 32 34 26 17 16 7 14 25 36 32 7 3 8 18 5 2 7
47 52 64 69 74 69 64 55 52 52 56 59 60 59 54 47 44 41 36 22 19 7 15 30 45 38 17 25 17 30 38 24 19 18 18 10 27 28 5 17 15 11 17 28 10 6 8
46 51 45 64 83 77 71 61 60 55 55 61 63 60 55 47 40 42 43 39 26 12 12 17 42 44 43 42 22 41 50 24 12 18 32 24 5 17 18 15 21 22 27 24 17 4 9
42 39 50 52 41 52 76 72 68 61 66 59 63 62 48 37 35 42 45 38 23 5 11 13 17 19 35 35 16 34 55 19 10 28 19 17 8 14 21 20 25 28 24 19 15 8 18
38 43 46 48 49 56 53 78 64 75 77 73 63 56 50 56 28 43 43 31 34 12 15 8 10 12 27 23 28 19 45 20 17 16 14 11 18 19 21 19 23 12 10 18 13 19 12
39 37 40 46 48 49 56 63 65 69 85 83 73 60 55 57 54 41 33 38 44 9 26 11 11 14 19 9 7 13 20 10 10 10 3 8 2 9 8 6 13 26 13 10 5 4 15
43 43 39 38 43 49 55 63 57 59 82 87 73 67 69 69 72 49 41 56 12 26 9 16 13 17 17 14 11 14 24 24 20 16 28 8 18 8 9 10 5 14 22 7 9 10 14
41 42 40 38 38 43 50 57 59 48 80 85 76 73 74 76 72 62 64 17 24 31 40 7 11 15 21 18 10 14 18 24 31 11 7 21 14 30 27 35 19 34 28 13 14 11 4
50 42 44 40 36 37 45 55 57 58 59 76 79 82 83 88 83 76 62 32 35 33 29 23 13 12 20 12 12 17 25 19 26 33 24 18 13 6 8 7 28 16 20 5 8 3 5
51 45 49 47 45 42 41 48 54 62 62 60 94 92 102 99 94 91 37 45 36 28 20 28 41 29 34 26 25 31 29 17 16 40 22 11 11 3 5 6 1 11 21 9 8 11 13
41 41 47 54 51 46 40 43 48 56 61 51 53 37 85 107 107 78 32 42 52 34 33 33 40 30 18 24 32 22 26 12 28 24 43 9 9 7 12 23 34 13 14 9 6 9 8
43 42 43 49 45 43 40 37 47 51 62 46 54 17 44 113 43 33 40 71 55 47 37 30 14 38 29 28 29 33 38 29 51 35 31 21 5 12 23 2 4 22 21 27 13 13 9
48 48 45 39 41 42 40 37 37 45 58 52 30 26 73 104 30 29 30 53 42 39 51 29 24 22 20 27 21 36 24 18 39 37 35 25 11 10 7 7 4 17 19 27 13 4 25
50 50 43 50 37 32 40 36 33 37 47 59 19 5 24 69 46 47 47 44 49 65 36 60 38 23 11 27 26 18 24 14 41 41 42 50 16 32 34 11 20 21 29 29 34 20 32
46 49 48 48 45 43 43 35 33 31 36 55 26 10 9 9 24 30 43 24 51 43 51 54 29 52 49 34 37 47 18 8 10 18 18 23 30 39 42 19 13 16 36 42 51 62 31
56 48 49 44 51 39 40 37 32 32 32 56 24 9 5 7 8 33 31 35 43 39 22 41 48 48 44 51 51 31 39 27 20 17 18 4 25 33 38 41 29 26 33 50 55 54 52
43 46 48 42 52 46 32 36 32 30 24 14 43 39 20 8 1 9 19 28 27 16 3 8 25 39 44 56 57 43 19 31 24 31 35 25 28 15 32 29 9 13 53 40 35 42 39
51 31 42 44 40 54 41 36 36 28 29 28 16 19 15 14 23 18 8 21 27 26 15 6 8 3 10 21 24 18 30 24 14 7 11 23 36 15 11 12 20 12 6 33 34 24 24
46 43 42 35 40 44 52 45 33 27 28 30 26 9 12 5 13 6 22 28 34 24 15 15 14 13 35 14 5 6 4 3 2 7 6 4 13 8 9 14 12 2 8 18 24 28 21
48 53 43 45 34 39 46 45 45 34 29 28 25 18 10 2 9 9 7 15 9 10 7 4 10 36 21 5 6 11 11 9 11 5 5 3 9 15 8 11 17 2 5 8 9 11 16
56 53 52 49 53 42 43 44 43 43 28 26 24 27 15 7 10 18 7 10 16 12 7 9 15 8 11 6 7 9 9 3 14 17 13 8 5 25 13 11 9 9 13 18 13 8 16
49 52 56 55 48 49 45 44 42 46 44 29 24 25 26 11 10 19 15 13 13 16 10 17 13 3 4 9 9 7 6 10 7 6 10 18 17 9 7 10 18 19 12 16 7 18 32
55 52 55 55 54 45 49 47 45 44 51 41 29 29 31 13 7 24 28 19 21 24 18 34 3 8 16 7 6 6 5 7 12 9 5 9 7 8 14 6 4 40 7 12 25 31 30
Wind_Direction_500mb
255 253 252 250 247 244 242 240 241 244 247 249 249 252 258 263 262 266 269 270 274 280 286 291 295 302 307 283 250 229 218 204 183 173 173 179 173 150 197 154 159 206 180 197 176 192 220
266 259 255 252 250 247 246 243 242 243 245 249 253 253 253 256 259 260 265 270 273 275 279 285 290 293 290 257 254 239 231 218 208 199 195 196 200 172 124 158 228 148 221 251 244 218 210
265 266 264 258 254 251 247 247 245 244 244 245 250 255 255 253 253 256 259 263 268 270 275 280 284 285 277 261 252 234 228 219 212 206 209 207 196 167 145 142 150 31 282 276 231 205 217
263 263 265 265 263 257 252 248 248 246 245 245 246 251 254 254 251 252 258 262 264 267 272 278 280 279 257 257 245 234 224 216 210 207 205 196 178 158 123 134 76 258 261 255 132 167 171
267 261 258 262 262 262 260 252 249 248 247 246 246 246 249 250 250 250 255 260 263 266 270 272 272 253 255 246 233 229 215 211 202 192 185 178 166 128 138 190 202 214 255 228 283 188 152
260 260 259 259 257 261 259 262 250 251 248 247 244 243 244 246 248 250 252 257 262 267 267 269 252 253 235 223 214 210 202 189 171 168 145 158 134 179 178 198 233 205 220 231 239 168 210
269 262 257 257 258 251 257 260 266 255 250 247 244 242 241 242 244 248 251 253 265 262 233 213 219 209 184 199 192 193 188 177 162 165 184 150 203 215 213 217 254 180 220 252 200 171 244
268 266 261 255 256 251 254 252 259 261 261 247 243 240 238 240 243 243 238 216 221 226 289 244 240 232 229 195 183 189 180 174 173 192 142 164 228 229 139 195 211 227 245 252 271 206 238
266 266 266 249 256 248 249 249 255 253 261 257 244 238 236 235 236 233 234 228 230 246 265 252 233 231 225 216 215 194 184 187 185 169 195 211 163 184 173 165 200 226 230 240 260 151 213
267 261 243 258 258 248 249 246 250 251 248 260 247 237 229 220 226 228 232 222 206 196 267 232 211 220 204 201 221 200 188 178 185 208 180 234 170 151 183 211 201 236 221 238 237 242 260
272 269 266 264 261 254 250 249 254 250 247 239 252 233 216 211 212 208 228 203 185 145 272 127 148 176 165 179 143 181 181 196 182 167 181 199 178 185 203 213 186 257 142 206 220 237 267
279 280 276 269 264 254 255 256 260 249 242 240 232 228 212 214 209 217 204 170 155 187 240 174 137 162 151 161 134 112 171 161 143 133 267 274 119 206 211 96 187 137 105 89 95 203 252
274 275 277 279 274 263 252 250 259 260 244 232 220 220 213 214 207 200 173 153 170 221 131 180 175 174 173 154 151 168 173 185 180 188 224 193 219 182 164 129 92 186 164 195 223 210 249
271 270 275 277 280 280 264 250 254 257 254 226 217 216 217 218 216 196 176 181 216 226 209 100 121 137 181 153 184 160 155 197 211 198 147 201 231 191 190 213 185 193 192 199 214 205 223
264 267 268 275 277 287 273 261 246 245 243 241 216 216 215 213 210 193 179 200 218 207 189 147 129 164 198 196 173 169 199 216 201 193 205 193 244 191 205 142 170 179 214 178 113 97 257
264 258 268 265 276 285 286 261 257 250 242 245 230 219 212 211 205 199 191 215 226 207 143 180 206 191 185 183 176 191 180 192 201 196 212 202 242 219 146 137 199 200 145 170 217 214 231
277 260 264 271 272 280 284 270 253 255 244 239 236 217 212 209 202 198 203 219 218 215 192 181 212 203 199 176 196 198 199 175 205 198 195 157 233 139 140 209 189 174 194 209 210 220 231
283 272 260 265 263 275 275 272 254 247 253 235 248 230 210 202 194 204 207 211 215 212 216 228 231 221 209 181 196 206 204 207 194 153 176 198 188 197 206 139 306 233 222 191 201 189 245
274 282 259 266 266 270 277 282 274 243 238 237 228 245 185 191 203 200 222 216 225 204 206 210 210 201 194 188 213 207 202 201 170 169 172 170 206 219 220 218 182 219 205 217 213 45 211
266 273 277 245 257 264 272 280 283 260 233 228 255 230 192 201 209 203 206 219 210 223 222 215 227 208 177 215 222 209 215 190 199 197 195 163 183 210 225 205 156 203 205 207 206 227 227
268 271 271 257 254 256 267 273 279 283 246 224 229 207 227 204 200 196 203 208 221 220 214 204 216 213 216 225 230 234 185 151 206 217 188 191 223 218 238 233 204 207 195 197 209 224 216
258 254 268 273 245 253 257 261 272 278 272 210 200 170 201 305 279 206 183 208 214 216 182 212 220 219 221 218 213 217 225 205 202 180 191 191 228 215 241 241 234 235 217 204 211 223 235
266 258 253 262 248 251 265 249 259 267 272 256 218 215 202 251 343 261 215 198 200 148 126 203 227 225 216 226 229 240 212 221 202 185 190 184 209 183 236 217 191 262 228 205 210 218 222
258 267 253 253 255 247 254 253 247 248 254 254 269 182 195 215 200 206 194 214 204 197 173 184 121 150 152 116 110 79 68 73 111 30 231 192 204 212 229 129 219 272 5 217 211 196 211
280 279 257 255 251 248 252 251 249 245 242 261 246 230 164 236 211 165 205 216 225 203 183 189 195 159 154 107 97 110 37 87 63 16 77 118 166 156 188 208 323 104 201 169 179 231 197
269 271 279 253 256 250 244 249 251 244 239 236 232 241 227 133 225 152 167 173 156 156 119 123 159 161 162 114 153 189 192 160 191 154 21 141 214 202 154 207 225 263 175 170 129 251 199
262 263 267 271 250 254 248 243 246 238 221 223 224 231 225 217 227 172 173 177 141 131 122 136 149 160 150 135 185 191 192 151 167 179 168 160 184 215 198 222 273 201 169 151 148 237 154
267 260 257 259 269 251 247 237 230 235 232 218 224 214 208 215 213 209 181 151 147 169 152 145 114 158 137 196 181 179 185 193 139 139 178 180 169 188 176 217 249 145 115 178 152 133 159
261 261 251 250 258 258 244 242 228 225 226 228 214 210 204 206 208 215 216 198 187 174 142 171 5 154 155 155 173 134 161 180 155 189 173 211 204 185 201 203 58 167 85 171 154 157 169
Wind_Speed_850mb
30 35 41 45 46 47 45 43 41 39 36 33 30 27 25 24 23 23 22 20 19 19 19 18 17 16 15 8 11 11 9 9 12 15 17 11 6 5 5 6 5 5 6 7 9 12 9
34 33 38 43 47 50 50 49 47 45 42 39 37 34 30 28 28 27 26 25 23 21 21 20 20 18 15 11 14 15 15 16 17 18 18 12 6 8 10 5 5 3 5 8 10 10 12
44 40 38 39 45 50 53 54 52 50 48 44 42 40 37 33 32 31 30 28 27 25 23 22 21 20 22 24 17 16 17 18 20 21 19 15 10 9 13 8 3 0 8 11 15 10 11
55 48 45 43 42 45 52 54 56 54 53 50 47 44 42 39 36 34 32 31 29 27 25 23 20 18 15 21 24 28 25 22 22 22 20 16 15 14 7 15 5 2 4 8 7 9 5
61 58 53 51 47 46 46 51 54 57 57 55 53 48 46 42 40 37 34 32 30 29 26 23 20 15 12 21 27 30 25 23 23 21 20 21 21 8 11 9 6 5 11 14 5 6 5
61 62 59 58 54 55 48 48 48 55 58 58 56 53 48 45 43 40 35 33 30 30 28 23 24 10 27 15 21 27 29 26 21 26 22 15 7 8 7 15 16 13 11 10 13 6 9
48 60 66 62 60 64 55 49 51 49 57 59 59 56 51 46 43 41 35 25 22 17 31 23 10 10 5 24 22 24 32 34 26 17 16 7 14 25 36 32 7 3 8 18 5 2 7
47 52 64 69 74 69 64 55 52 52 56 59 60 59 54 47 44 41 36 22 19 7 15 30 45 38 17 25 17 30 38 24 19 18 18 10 27 28 5 17 15 11 17 28 10 6 8
46 51 45 64 83 77 71 61 60 55 55 61 63 60 55 47 40 42 43 39 26 12 12 17 42 44 43 42 22 41 50 24 12 18 32 24 5 17 18 15 21 22 27 24 17 4 9
42 39 50 52 41 52 76 72 68 61 66 59 63 62 48 37 35 42 45 38 23 5 11 13 17 19 35 35 16 34 55 19 10 28 19 17 8 14 21 20 25 28 24 19 15 8 18
38 43 46 48 49 56 53 78 64 75 77 73 63 56 50 56 28 43 43 31 34 12 15 8 10 12 27 23 28 19 45 20 17 16 14 11 18 19 21 19 23 12 10 18 13 19 12
39 37 40 46 48 49 56 63 65 69 85 83 73 60 55 57 54 41 33 38 44 9 26 11 11 14 19 9 7 13 20 10 10 10 3 8 2 9 8 6 13 26 13 10 5 4 15
43 43 39 38 43 49 55 63 57 59 82 87 73 67 69 69 72 49 41 56 12 26 9 16 13 17 17 14 11 14 24 24 20 16 28 8 18 8 9 10 5 14 22 7 9 10 14
41 42 40 38 38 43 50 57 59 48 80 85 76 73 74 76 72 62 64 17 24 31 40 7 11 15 21 18 10 14 18 24 31 11 7 21 14 30 27 35 19 34 28 13 14 11 4
50 42 44 40 36 37 45 55 57 58 59 76 79 82 83 88 83 76 62 32 35 33 29 23 13 12 20 12 12 17 25 19 26 33 24 18 13 6 8 7 28 16 20 5 8 3 5
51 45 49 47 45 42 41 48 54 62 62 60 94 92 102 99 94 91 37 45 36 28 20 28 41 29 34 26 25 31 29 17 16 40 22 11 11 3 5 6 1 11 21 9 8 11 13
41 41 47 54 51 46 40 43 48 56 61 51 53 37 85 107 107 78 32 42 52 34 33 33 40 30 18 24 32 22 26 12 28 24 43 9 9 7 12 23 34 13 14 9 6 9 8
43 42 43 49 45 43 40 37 47 51 62 46 54 17 44 113 43 33 40 71 55 47 37 30 14 38 29 28 29 33 38 29 51 35 31 21 5 12 23 2 4 22 21 27 13 13 9
48 48 45 39 41 42 40 37 37 45 58 52 30 26 73 104 30 29 30 53 42 39 51 29 24 22 20 27 21 36 24 18 39 37 35 25 11 10 7 7 4 17 19 27 13 4 25
50 50 43 50 37 32 40 36 33 37 47 59 19 5 24 69 46 47 47 44 49 65 36 60 38 23 11 27 26 18 24 14 41 41 42 50 16 32 34 11 20 21 29 29 34 20 32
46 49 48 48 45 43 43 35 33 31 36 55 26 10 9 9 24 30 43 24 51 43 51 54 29 52 49 34 37 47 18 8 10 18 18 23 30 39 42 19 13 16 36 42 51 62 31
56 48 49 44 51 39 40 37 32 32 32 56 24 9 5 7 8 33 31 35 43 39 22 41 48 48 44 51 51 31 39 27 20 17 18 4 25 33 38 41 29 26 33 50 55 54 52
43 46 48 42 52 46 32 36 32 30 24 14 43 39 20 8 1 9 19 28 27 16 3 8 25 39 44 56 57 43 19 31 24 31 35 25 28 15 32 29 9 13 53 40 35 42 39
51 31 42 44 40 54 41 36 36 28 29 28 16 19 15 14 23 18 8 21 27 26 15 6 8 3 10 21 24 18 30 24 14 7 11 23 36 15 11 12 20 12 6 33 34 24 24
46 43 42 35 40 44 52 45 33 27 28 30 26 9 12 5 13 6 22 28 34 24 15 15 14 13 35 14 5 6 4 3 2 7 6 4 13 8 9 14 12 2 8 18 24 28 21
48 53 43 45 34 39 46 45 45 34 29 28 25 18 10 2 9 9 7 15 9 10 7 4 10 36 21 5 6 11 11 9 11 5 5 3 9 15 8 11 17 2 5 8 9 11 16
56 53 52 49 53 42 43 44 43 43 28 26 24 27 15 7 10 18 7 10 16 12 7 9 15 8 11 6 7 9 9 3 14 17 13 8 5 25 13 11 9 9 13 18 13 8 16
49 52 56 55 48 49 45 44 42 46 44 29 24 25 26 11 10 19 15 13 13 16 10 17 13 3 4 9 9 7 6 10 7 6 10 18 17 9 7 10 18 19 12 16 7 18 32
55 52 55 55 54 45 49 47 45 44 51 41 29 29 31 13 7 24 28 19 21 24 18 34 3 8 16 7 6 6 5 7 12 9 5 9 7 8 14 6 4 40 7 12 25 31 30
Wind_Direction_850mb
255 253 252 250 247 244 242 240 241 244 247 249 249 252 258 263 262 266 269 270 274 280 286 291 295 302 307 283 250 229 218 204 183 173 173 179 173 150 197 154 159 206 180 197 176 192 220
266 259 255 252 250 247 246 243 242 243 245 249 253 253 253 256 259 260 265 270 273 275 279 285 290 293 290 257 254 239 231 218 208 199 195 196 200 172 124 158 228 148 221 251 244 218 210
265 266 264 258 254 251 247 247 245 244 244 245 250 255 255 253 253 256 259 263 268 270 275 280 284 285 277 261 252 234 228 219 212 206 209 207 196 167 145 142 150 31 282 276 231 205 217
263 263 265 265 263 257 252 248 248 246 245 245 246 251 254 254 251 252 258 262 264 267 272 278 280 279 257 257 245 234 224 216 210 207 205 196 178 158 123 134 76 258 261 255 132 167 171
267 261 258 262 262 262 260 252 249 248 247 246 246 246 249 250 250 250 255 260 263 266 270 272 272 253 255 246 233 229 215 211 202 192 185 178 166 128 138 190 202 214 255 228 283 188 152
260 260 259 259 257 261 259 262 250 251 248 247 244 243 244 246 248 250 252 257 262 267 267 269 252 253 235 223 214 210 202 189 171 168 145 158 134 179 178 198 233 205 220 231 239 168 210
269 262 257 257 258 251 257 260 266 255 250 247 244 242 241 242 244 248 251 253 265 262 233 213 219 209 184 199 192 193 188 177 162 165 184 150 203 215 213 217 254 180 220 252 200 171 244
268 266 261 255 256 251 254 252 259 261 261 247 243 240 238 240 243 243 238 216 221 226 289 244 240 232 229 195 183 189 180 174 173 192 142 164 228 229 139 195 211 227 245 252 271 206 238
266 266 266 249 256 248 249 249 255 253 261 257 244 238 236 235 236 233 234 228 230 246 265 252 233 231 225 216 215 194 184 187 185 169 195 211 163 184 173 165 200 226 230 240 260 151 213
267 261 243 258 258 248 249 246 250 251 248 260 247 237 229 220 226 228 232 222 206 196 267 232 211 220 204 201 221 200 188 178 185 208 180 234 170 151 183 211 201 236 221 238 237 242 260
272 269 266 264 261 254 250 249 254 250 247 239 252 233 216 211 212 208 228 203 185 145 272 127 148 176 165 179 143 181 181 196 182 167 181 199 178 185 203 213 186 257 142 206 220 237 267
279 280 276 269 264 254 255 256 260 249 242 240 232 228 212 214 209 217 204 170 155 187 240 174 137 162 151 161 134 112 171 161 143 133 267 274 119 206 211 96 187 137 105 89 95 203 252
274 275 277 279 274 263 252 250 259 260 244 232 220 220 213 214 207 200 173 153 170 221 131 180 175 174 173 154 151 168 173 185 180 188 224 193 219 182 164 129 92 186 164 195 223 210 249
271 270 275 277 280 280 264 250 254 257 254 226 217 216 217 218 216 196 176 181 216 226 209 100 121 137 181 153 184 160 155 197 211 198 147 201 231 191 190 213 185 193 192 199 214 205 223
264 267 268 275 277 287 273 261 246 245 243 241 216 216 215 213 210 193 179 200 218 207 189 147 129 164 198 196 173 169 199 216 201 193 205 193 244 191 205 142 170 179 214 178 113 97 257
264 258 268 265 276 285 286 261 257 250 242 245 230 219 212 211 205 199 191 215 226 207 143 180 206 191 185 183 176 191 180 192 201 196 212 202 242 219 146 137 199 200 145 170 217 214 231
277 260 264 271 272 280 284 270 253 255 244 239 236 217 212 209 202 198 203 219 218 215 192 181 212 203 199 176 196 198 199 175 205 198 195 157 233 139 140 209 189 174 194 209 210 220 231
283 272 260 265 263 275 275 272 254 247 253 235 248 230 210 202 194 204 207 211 215 212 216 228 231 221 209 181 196 206 204 207 194 153 176 198 188 197 206 139 306 233 222 191 201 189 245
274 282 259 266 266 270 277 282 274 243 238 237 228 245 185 191 203 200 222 216 225 204 206 210 210 201 194 188 213 207 202 201 170 169 172 170 206 219 220 218 182 219 205 217 213 45 211
266 273 277 245 257 264 272 280 283 260 233 228 255 230 192 201 209 203 206 219 210 223 222 215 227 208 177 215 222 209 215 190 199 197 195 163 183 210 225 205 156 203 205 207 206 227 227
268 271 271 257 254 256 267 273 279 283 246 224 229 207 227 204 200 196 203 208 221 220 214 204 216 213 216 225 230 234 185 151 206 217 188 191 223 218 238 233 204 207 195 197 209 224 216
258 254 268 273 245 253 257 261 272 278 272 210 200 170 201 305 279 206 183 208 214 216 182 212 220 219 221 218 213 217 225 205 202 180 191 191 228 215 241 241 234 235 217 204 211 223 235
266 258 253 262 248 251 265 249 259 267 272 256 218 215 202 251 343 261 215 198 200 148 126 203 227 225 216 226 229 240 212 221 202 185 190 184 209 183 236 217 191 262 228 205 210 218 222
258 267 253 253 255 247 254 253 247 248 254 254 269 182 195 215 200 206 194 214 204 197 173 184 121 150 152 116 110 79 68 73 111 30 231 192 204 212 229 129 219 272 5 217 211 196 211
280 279 257 255 251 248 252 251 249 245 242 261 246 230 164 236 211 165 205 216 225 203 183 189 195 159 154 107 97 110 37 87 63 16 77 118 166 156 188 208 323 104 201 169 179 231 197
269 271 279 253 256 250 244 249 251 244 239 236 232 241 227 133 225 152 167 173 156 156 119 123 159 161 162 114 153 189 192 160 191 154 21 141 214 202 154 207 225 263 175 170 129 251 199
262 263 267 271 250 254 248 243 246 238 221 223 224 231 225 217 227 172 173 177 141 131 122 136 149 160 150 135 185 191 192 151 167 179 168 160 184 215 198 222 273 201 169 151 148 237 154
267 260 257 259 269 251 247 237 230 235 232 218 224 214 208 215 213 209 181 151 147 169 152 145 114 158 137 196 181 179 185 193 139 139 178 180 169 188 176 217 249 145 115 178 152 133 159
261 261 251 250 258 258 244 242 228 225 226 228 214 210 204 206 208 215 216 198 187 174 142 171 5 154 155 155 173 134 161 180 155 189 173 211 204 185 201 203 58 167 85 171 154 157 169